Time,TemperatureF,DewpointF,PressureIn,WindDirection,WindDirectionDegrees,WindSpeedMPH,WindSpeedGustMPH,Humidity,HourlyPrecipIn,Conditions,Clouds,dailyrainin,SoftwareType,DateUTC
2013-02-24 00:10:00,44.8,45.0,29.95,West,274,2.0,-999.0,99,-99.99,,,0.00,weatherlink.com 1.10,2013-02-24 05:10:00,
2013-02-24 00:25:00,44.3,44.0,29.95,WSW,239,1.0,-999.0,99,-99.99,,,0.00,weatherlink.com 1.10,2013-02-24 05:25:00,
2013-02-24 00:40:00,46.0,45.0,29.95,ESE,112,1.0,-999.0,97,-99.99,,,0.00,weatherlink.com 1.10,2013-02-24 05:40:00,
2013-02-24 00:55:00,46.9,44.0,29.95,NW,322,4.0,-999.0,88,-99.99,,,0.00,weatherlink.com 1.10,2013-02-24 05:55:00,
2013-02-24 01:10:00,47.3,44.0,29.94,North,5,4.0,-999.0,87,-99.99,,,0.00,weatherlink.com 1.10,2013-02-24 06:10:00,
2013-02-24 01:25:00,47.7,44.0,29.94,NNW,340,4.0,-999.0,88,-99.99,,,0.00,weatherlink.com 1.10,2013-02-24 06:25:00,
2013-02-24 01:40:00,47.5,44.0,29.94,NNW,336,5.0,-999.0,88,-99.99,,,0.00,weatherlink.com 1.10,2013-02-24 06:40:00,
2013-02-24 01:55:00,47.1,44.0,29.94,NW,326,5.0,-999.0,88,-99.99,,,0.00,weatherlink.com 1.10,2013-02-24 06:55:00,
2013-02-24 02:10:00,46.1,43.0,29.93,West,260,3.0,-999.0,90,-99.99,,,0.00,weatherlink.com 1.10,2013-02-24 07:10:00,
2013-02-24 02:25:00,46.0,43.0,29.94,NW,325,1.0,-999.0,89,-99.99,,,0.00,weatherlink.com 1.10,2013-02-24 07:25:00,
2013-02-24 02:40:00,45.7,43.0,29.94,NW,323,1.0,-999.0,89,-99.99,,,0.00,weatherlink.com 1.10,2013-02-24 07:40:00,
2013-02-24 02:55:00,45.3,42.0,29.93,WNW,300,2.0,-999.0,87,-99.99,,,0.00,weatherlink.com 1.10,2013-02-24 07:55:00,
2013-02-24 03:10:00,44.9,42.0,29.93,NNW,344,4.0,-999.0,88,-99.99,,,0.00,weatherlink.com 1.10,2013-02-24 08:10:00,
2013-02-24 03:25:00,44.2,41.0,29.93,NW,319,3.0,-999.0,89,-99.99,,,0.00,weatherlink.com 1.10,2013-02-24 08:25:00,
2013-02-24 03:40:00,44.5,41.0,29.93,NW,318,4.0,-999.0,88,-99.99,,,0.00,weatherlink.com 1.10,2013-02-24 08:40:00,
2013-02-24 03:55:00,45.5,40.0,29.93,NW,304,5.0,-999.0,82,-99.99,,,0.00,weatherlink.com 1.10,2013-02-24 08:55:00,
2013-02-24 04:10:00,45.5,40.0,29.93,NW,323,9.0,-999.0,81,-99.99,,,0.00,weatherlink.com 1.10,2013-02-24 09:10:00,
2013-02-24 04:25:00,45.0,40.0,29.93,NW,307,6.0,-999.0,82,-99.99,,,0.00,weatherlink.com 1.10,2013-02-24 09:25:00,
2013-02-24 04:40:00,44.4,40.0,29.94,NW,304,6.0,-999.0,84,-99.99,,,0.00,weatherlink.com 1.10,2013-02-24 09:40:00,
2013-02-24 04:55:00,44.0,40.0,29.95,NW,311,9.0,-999.0,86,-99.99,,,0.00,weatherlink.com 1.10,2013-02-24 09:55:00,
2013-02-24 05:10:00,43.0,40.0,29.95,NW,311,11.0,-999.0,88,-99.99,,,0.00,weatherlink.com 1.10,2013-02-24 10:10:00,
2013-02-24 05:25:00,42.4,39.0,29.95,NW,323,5.0,-999.0,89,-99.99,,,0.00,weatherlink.com 1.10,2013-02-24 10:25:00,
2013-02-24 05:40:00,42.2,39.0,29.96,NW,315,13.0,-999.0,88,-99.99,,,0.00,weatherlink.com 1.10,2013-02-24 10:40:00,
2013-02-24 05:55:00,41.5,39.0,29.96,NW,323,11.0,-999.0,89,-99.99,,,0.00,weatherlink.com 1.10,2013-02-24 10:55:00,
2013-02-24 06:10:00,41.3,38.0,29.97,North,351,8.0,-999.0,88,-99.99,,,0.00,weatherlink.com 1.10,2013-02-24 11:10:00,
2013-02-24 06:25:00,40.8,38.0,29.97,NW,307,4.0,-999.0,89,-99.99,,,0.00,weatherlink.com 1.10,2013-02-24 11:25:00,
2013-02-24 06:40:00,40.6,38.0,29.98,NNW,335,3.0,-999.0,89,-99.99,,,0.00,weatherlink.com 1.10,2013-02-24 11:40:00,
2013-02-24 06:55:00,40.4,38.0,29.98,NW,311,8.0,-999.0,89,-99.99,,,0.00,weatherlink.com 1.10,2013-02-24 11:55:00,
2013-02-24 07:10:00,40.6,37.0,29.99,NNW,327,10.0,-999.0,88,-99.99,,,0.00,weatherlink.com 1.10,2013-02-24 12:10:00,
2013-02-24 07:25:00,40.1,37.0,30.00,NNW,339,3.0,-999.0,88,-99.99,,,0.00,weatherlink.com 1.10,2013-02-24 12:25:00,
2013-02-24 07:40:00,40.1,37.0,30.00,NW,312,9.0,-999.0,88,-99.99,,,0.00,weatherlink.com 1.10,2013-02-24 12:40:00,
2013-02-24 07:55:00,39.6,36.0,30.00,NNW,338,4.0,-999.0,88,-99.99,,,0.00,weatherlink.com 1.10,2013-02-24 12:55:00,
2013-02-24 08:10:00,39.6,36.0,30.01,ESE,110,6.0,-999.0,87,-99.99,,,0.00,weatherlink.com 1.10,2013-02-24 13:10:00,
2013-02-24 08:25:00,39.7,36.0,30.02,NW,307,5.0,-999.0,87,-99.99,,,0.00,weatherlink.com 1.10,2013-02-24 13:25:00,
2013-02-24 08:40:00,40.0,36.0,30.02,North,352,9.0,-999.0,86,-99.99,,,0.00,weatherlink.com 1.10,2013-02-24 13:40:00,
2013-02-24 08:55:00,40.5,36.0,30.02,NW,319,13.0,-999.0,84,-99.99,,,0.00,weatherlink.com 1.10,2013-02-24 13:55:00,
2013-02-24 09:10:00,41.0,36.0,30.03,NNW,328,8.0,-999.0,83,-99.99,,,0.00,weatherlink.com 1.10,2013-02-24 14:10:00,
2013-02-24 09:25:00,41.5,36.0,30.04,North,349,11.0,-999.0,82,-99.99,,,0.00,weatherlink.com 1.10,2013-02-24 14:25:00,
2013-02-24 09:40:00,42.2,36.0,30.04,NE,46,16.0,-999.0,79,-99.99,,,0.00,weatherlink.com 1.10,2013-02-24 14:40:00,
2013-02-24 09:55:00,43.1,36.0,30.05,WNW,294,5.0,-999.0,75,-99.99,,,0.00,weatherlink.com 1.10,2013-02-24 14:55:00,
2013-02-24 10:10:00,44.1,36.0,30.05,NW,323,6.0,-999.0,73,-99.99,,,0.00,weatherlink.com 1.10,2013-02-24 15:10:00,
2013-02-24 10:25:00,45.4,36.0,30.05,West,278,7.0,-999.0,69,-99.99,,,0.00,weatherlink.com 1.10,2013-02-24 15:25:00,
2013-02-24 10:40:00,46.9,35.0,30.05,NW,304,4.0,-999.0,64,-99.99,,,0.00,weatherlink.com 1.10,2013-02-24 15:40:00,
2013-02-24 10:55:00,48.5,35.0,30.05,NW,315,6.0,-999.0,60,-99.99,,,0.00,weatherlink.com 1.10,2013-02-24 15:55:00,
2013-02-24 11:10:00,50.0,35.0,30.06,WNW,287,3.0,-999.0,57,-99.99,,,0.00,weatherlink.com 1.10,2013-02-24 16:10:00,
2013-02-24 11:25:00,51.2,34.0,30.06,North,5,1.0,-999.0,53,-99.99,,,0.00,weatherlink.com 1.10,2013-02-24 16:25:00,
2013-02-24 11:40:00,52.9,35.0,30.07,ENE,70,1.0,-999.0,51,-99.99,,,0.00,weatherlink.com 1.10,2013-02-24 16:40:00,
2013-02-24 11:55:00,53.7,33.0,30.06,NW,315,3.0,-999.0,45,-99.99,,,0.00,weatherlink.com 1.10,2013-02-24 16:55:00,
2013-02-24 12:10:00,53.8,33.0,30.06,NNW,333,4.0,-999.0,45,-99.99,,,0.00,weatherlink.com 1.10,2013-02-24 17:10:00,
2013-02-24 12:25:00,54.8,31.0,30.06,NW,323,4.0,-999.0,41,-99.99,,,0.00,weatherlink.com 1.10,2013-02-24 17:25:00,
2013-02-24 12:40:00,56.5,37.0,30.05,NNW,342,0.0,-999.0,48,-99.99,,,0.00,weatherlink.com 1.10,2013-02-24 17:40:00,
2013-02-24 12:55:00,57.3,37.0,30.05,ESE,121,4.0,-999.0,47,-99.99,,,0.00,weatherlink.com 1.10,2013-02-24 17:55:00,
2013-02-24 13:10:00,57.2,36.0,30.04,South,169,3.0,-999.0,46,-99.99,,,0.00,weatherlink.com 1.10,2013-02-24 18:10:00,
2013-02-24 13:25:00,57.5,38.0,30.04,SSE,149,2.0,-999.0,48,-99.99,,,0.00,weatherlink.com 1.10,2013-02-24 18:25:00,
2013-02-24 13:40:00,57.6,34.0,30.03,WNW,288,3.0,-999.0,42,-99.99,,,0.00,weatherlink.com 1.10,2013-02-24 18:40:00,
2013-02-24 13:55:00,59.0,36.0,30.02,SE,128,6.0,-999.0,43,-99.99,,,0.00,weatherlink.com 1.10,2013-02-24 18:55:00,
2013-02-24 14:10:00,58.3,36.0,30.02,East,86,1.0,-999.0,44,-99.99,,,0.00,weatherlink.com 1.10,2013-02-24 19:10:00,
2013-02-24 14:25:00,59.9,37.0,30.01,SW,235,6.0,-999.0,42,-99.99,,,0.00,weatherlink.com 1.10,2013-02-24 19:25:00,
2013-02-24 14:40:00,58.8,36.0,30.02,SE,139,1.0,-999.0,42,-99.99,,,0.00,weatherlink.com 1.10,2013-02-24 19:40:00,
2013-02-24 14:55:00,60.7,36.0,30.02,East,87,1.0,-999.0,40,-99.99,,,0.00,weatherlink.com 1.10,2013-02-24 19:55:00,
2013-02-24 15:10:00,59.5,33.0,30.02,NE,51,2.0,-999.0,37,-99.99,,,0.00,weatherlink.com 1.10,2013-02-24 20:10:00,
2013-02-24 15:25:00,58.2,32.0,30.02,ENE,63,1.0,-999.0,37,-99.99,,,0.00,weatherlink.com 1.10,2013-02-24 20:25:00,
2013-02-24 15:40:00,58.1,33.0,30.02,NW,304,2.0,-999.0,39,-99.99,,,0.00,weatherlink.com 1.10,2013-02-24 20:40:00,
2013-02-24 15:55:00,58.4,31.0,30.02,NW,309,5.0,-999.0,35,-99.99,,,0.00,weatherlink.com 1.10,2013-02-24 20:55:00,
2013-02-24 16:10:00,57.2,30.0,30.01,WNW,301,2.0,-999.0,36,-99.99,,,0.00,weatherlink.com 1.10,2013-02-24 21:10:00,
2013-02-24 16:25:00,57.8,29.0,30.01,NW,309,4.0,-999.0,34,-99.99,,,0.00,weatherlink.com 1.10,2013-02-24 21:25:00,
2013-02-24 16:40:00,57.7,29.0,30.02,WNW,302,5.0,-999.0,33,-99.99,,,0.00,weatherlink.com 1.10,2013-02-24 21:40:00,
2013-02-24 16:55:00,56.3,27.0,30.02,WNW,293,10.0,-999.0,33,-99.99,,,0.00,weatherlink.com 1.10,2013-02-24 21:55:00,
2013-02-24 17:10:00,56.1,28.0,30.02,North,357,8.0,-999.0,34,-99.99,,,0.00,weatherlink.com 1.10,2013-02-24 22:10:00,
2013-02-24 17:25:00,55.7,28.0,30.02,NNW,328,9.0,-999.0,34,-99.99,,,0.00,weatherlink.com 1.10,2013-02-24 22:25:00,
2013-02-24 17:40:00,55.3,27.0,30.02,NW,304,5.0,-999.0,34,-99.99,,,0.00,weatherlink.com 1.10,2013-02-24 22:40:00,
2013-02-24 17:55:00,54.7,27.0,30.03,NW,311,11.0,-999.0,35,-99.99,,,0.00,weatherlink.com 1.10,2013-02-24 22:55:00,
2013-02-24 18:10:00,53.6,28.0,30.03,North,354,7.0,-999.0,37,-99.99,,,0.00,weatherlink.com 1.10,2013-02-24 23:10:00,
2013-02-24 18:25:00,52.2,26.0,30.03,NE,50,5.0,-999.0,37,-99.99,,,0.00,weatherlink.com 1.10,2013-02-24 23:25:00,
2013-02-24 18:40:00,50.9,26.0,30.04,NW,323,5.0,-999.0,38,-99.99,,,0.00,weatherlink.com 1.10,2013-02-24 23:40:00,
2013-02-24 18:55:00,49.9,26.0,30.05,NW,326,6.0,-999.0,39,-99.99,,,0.00,weatherlink.com 1.10,2013-02-24 23:55:00,
2013-02-24 19:10:00,49.3,25.0,30.06,North,351,5.0,-999.0,39,-99.99,,,0.00,weatherlink.com 1.10,2013-02-25 00:10:00,
2013-02-24 19:25:00,49.0,25.0,30.06,North,349,12.0,-999.0,40,-99.99,,,0.00,weatherlink.com 1.10,2013-02-25 00:25:00,
2013-02-24 19:40:00,48.4,25.0,30.06,North,356,6.0,-999.0,41,-99.99,,,0.00,weatherlink.com 1.10,2013-02-25 00:40:00,
2013-02-24 19:55:00,47.7,25.0,30.06,NNE,33,10.0,-999.0,42,-99.99,,,0.00,weatherlink.com 1.10,2013-02-25 00:55:00,
2013-02-24 20:10:00,47.0,25.0,30.06,WNW,283,3.0,-999.0,43,-99.99,,,0.00,weatherlink.com 1.10,2013-02-25 01:10:00,
2013-02-24 20:25:00,46.4,25.0,30.06,WSW,252,7.0,-999.0,44,-99.99,,,0.00,weatherlink.com 1.10,2013-02-25 01:25:00,
2013-02-24 20:40:00,45.9,25.0,30.07,NNW,330,7.0,-999.0,45,-99.99,,,0.00,weatherlink.com 1.10,2013-02-25 01:40:00,
2013-02-24 20:55:00,45.3,25.0,30.07,NNE,25,7.0,-999.0,46,-99.99,,,0.00,weatherlink.com 1.10,2013-02-25 01:55:00,
2013-02-24 21:10:00,45.1,26.0,30.07,NNW,342,7.0,-999.0,47,-99.99,,,0.00,weatherlink.com 1.10,2013-02-25 02:10:00,
2013-02-24 21:25:00,44.6,26.0,30.07,NW,304,5.0,-999.0,48,-99.99,,,0.00,weatherlink.com 1.10,2013-02-25 02:25:00,
2013-02-24 21:40:00,44.4,26.0,30.07,SSW,198,3.0,-999.0,48,-99.99,,,0.00,weatherlink.com 1.10,2013-02-25 02:40:00,
2013-02-24 21:55:00,43.7,26.0,30.08,North,349,12.0,-999.0,50,-99.99,,,0.00,weatherlink.com 1.10,2013-02-25 02:55:00,
2013-02-24 22:10:00,43.5,26.0,30.08,NNW,328,9.0,-999.0,50,-99.99,,,0.00,weatherlink.com 1.10,2013-02-25 03:10:00,
2013-02-24 22:25:00,43.5,25.0,30.08,NE,56,14.0,-999.0,49,-99.99,,,0.00,weatherlink.com 1.10,2013-02-25 03:25:00,
2013-02-24 22:40:00,43.9,25.0,30.07,ENE,62,6.0,-999.0,48,-99.99,,,0.00,weatherlink.com 1.10,2013-02-25 03:40:00,
2013-02-24 22:55:00,43.7,25.0,30.07,ENE,63,9.0,-999.0,48,-99.99,,,0.00,weatherlink.com 1.10,2013-02-25 03:55:00,
2013-02-24 23:10:00,43.9,25.0,30.07,NE,53,9.0,-999.0,47,-99.99,,,0.00,weatherlink.com 1.10,2013-02-25 04:10:00,
2013-02-24 23:25:00,44.0,25.0,30.06,NNE,30,7.0,-999.0,47,-99.99,,,0.00,weatherlink.com 1.10,2013-02-25 04:25:00,
2013-02-24 23:40:00,44.0,24.0,30.06,ENE,57,14.0,-999.0,46,-99.99,,,0.00,weatherlink.com 1.10,2013-02-25 04:40:00,
2013-02-24 23:55:00,44.4,25.0,30.06,NNW,329,7.0,-999.0,46,-99.99,,,0.00,weatherlink.com 1.10,2013-02-25 04:55:00,